TimeEST,TemperatureF,Dew PointF,Humidity,Sea Level PressureIn,VisibilityMPH,Wind Direction,Wind SpeedMPH,Gust SpeedMPH,PrecipitationIn,Events,Conditions,WindDirDegrees,DateUTC
12:58 AM,41.4,39.9,95,30.02,10.0,Calm,Calm,-,N/A,,Mostly Cloudy,0,2013-12-02 05:58:00
1:08 AM,41.0,39.2,93,30.00,9.0,Calm,Calm,-,N/A,,Scattered Clouds,0,2013-12-02 06:08:00
1:58 AM,39.6,38.7,97,29.99,10.0,NNE,1.2,-,N/A,,Clear,30,2013-12-02 06:58:00
2:18 AM,39.2,37.4,93,29.98,9.0,Calm,Calm,-,N/A,,Clear,0,2013-12-02 07:18:00
2:48 AM,37.4,37.4,100,29.97,10.0,Calm,Calm,-,N/A,,Partly Cloudy,0,2013-12-02 07:48:00
2:58 AM,39.2,37.4,93,29.99,8.0,NNW,2.3,-,N/A,,Mostly Cloudy,330,2013-12-02 07:58:00
3:03 AM,39.2,37.4,93,29.98,7.0,NNW,2.3,-,N/A,,Mostly Cloudy,330,2013-12-02 08:03:00
3:13 AM,39.2,39.2,100,29.98,7.0,Calm,Calm,-,N/A,,Overcast,0,2013-12-02 08:13:00
3:28 AM,39.2,39.2,100,29.97,7.0,Calm,Calm,-,N/A,,Overcast,0,2013-12-02 08:28:00
3:58 AM,41.0,39.6,95,29.98,7.0,Calm,Calm,-,N/A,,Overcast,0,2013-12-02 08:58:00
4:08 AM,41.0,39.2,93,29.96,7.0,Calm,Calm,-,N/A,,Overcast,0,2013-12-02 09:08:00
4:23 AM,41.0,39.2,93,29.95,7.0,WSW,2.3,-,N/A,,Overcast,250,2013-12-02 09:23:00
4:48 AM,41.0,39.2,93,29.94,6.0,Calm,Calm,-,N/A,,Overcast,0,2013-12-02 09:48:00
4:53 AM,41.0,39.2,93,29.95,8.0,SSW,1.2,-,N/A,,Overcast,210,2013-12-02 09:53:00
4:58 AM,41.7,39.9,93,29.96,10.0,SSW,1.2,-,N/A,,Overcast,210,2013-12-02 09:58:00
5:23 AM,42.8,41.0,93,29.95,9.0,Calm,Calm,-,N/A,,Overcast,0,2013-12-02 10:23:00
5:38 AM,42.8,41.0,93,29.94,6.0,WSW,1.2,-,N/A,,Overcast,250,2013-12-02 10:38:00
5:43 AM,42.8,41.0,93,29.94,7.0,Calm,Calm,-,N/A,,Overcast,0,2013-12-02 10:43:00
5:58 AM,43.2,41.0,92,29.96,7.0,Calm,Calm,-,N/A,,Overcast,0,2013-12-02 10:58:00
6:58 AM,43.2,41.5,94,29.96,8.0,Variable,1.2,-,N/A,,Overcast,0,2013-12-02 11:58:00
7:58 AM,44.2,41.7,91,29.95,8.0,WSW,2.3,-,N/A,,Overcast,250,2013-12-02 12:58:00
8:58 AM,45.9,43.2,90,29.94,7.0,Calm,Calm,-,N/A,,Mostly Cloudy,0,2013-12-02 13:58:00
9:58 AM,48.7,43.9,83,29.94,8.0,Calm,Calm,-,N/A,,Overcast,0,2013-12-02 14:58:00
10:58 AM,51.1,44.8,79,29.92,9.0,Variable,1.2,-,N/A,,Overcast,0,2013-12-02 15:58:00
11:58 AM,56.5,45.3,66,29.89,10.0,East,2.3,-,N/A,,Mostly Cloudy,80,2013-12-02 16:58:00
12:18 PM,57.2,42.8,59,29.88,10.0,NE,2.3,-,N/A,,Mostly Cloudy,40,2013-12-02 17:18:00
12:23 PM,57.2,44.6,63,29.87,9.0,Variable,1.2,-,N/A,,Overcast,0,2013-12-02 17:23:00
12:38 PM,59.0,42.8,55,29.87,8.0,Variable,1.2,-,N/A,,Overcast,0,2013-12-02 17:38:00
12:58 PM,57.7,43.5,59,29.87,8.0,Variable,2.3,-,N/A,,Overcast,0,2013-12-02 17:58:00
1:13 PM,57.2,42.8,59,29.86,10.0,NE,1.2,-,N/A,,Overcast,50,2013-12-02 18:13:00
1:58 PM,59.7,43.9,56,29.86,10.0,ENE,2.3,-,N/A,,Partly Cloudy,70,2013-12-02 18:58:00
2:58 PM,57.7,44.1,60,29.85,10.0,ESE,3.5,-,N/A,,Overcast,120,2013-12-02 19:58:00
3:58 PM,57.2,43.2,59,29.84,10.0,ESE,4.6,-,N/A,,Clear,110,2013-12-02 20:58:00
4:58 PM,54.0,42.3,65,29.85,10.0,East,2.3,-,N/A,,Clear,90,2013-12-02 21:58:00
5:58 PM,46.8,42.3,84,29.86,10.0,NNE,1.2,-,N/A,,Clear,30,2013-12-02 22:58:00
6:58 PM,44.4,42.1,91,29.87,10.0,WNW,1.2,-,N/A,,Clear,300,2013-12-02 23:58:00
7:58 PM,41.9,40.5,95,29.88,10.0,Calm,Calm,-,N/A,,Clear,0,2013-12-03 00:58:00
8:58 PM,40.6,38.8,93,29.89,10.0,Calm,Calm,-,N/A,,Clear,0,2013-12-03 01:58:00
9:58 PM,38.5,37.4,96,29.88,10.0,Calm,Calm,-,N/A,,Clear,0,2013-12-03 02:58:00
10:18 PM,37.4,35.6,93,29.87,7.0,ENE,2.3,-,N/A,,Clear,70,2013-12-03 03:18:00
10:23 PM,35.6,35.6,100,29.87,6.0,ENE,2.3,-,N/A,,Partly Cloudy,60,2013-12-03 03:23:00
10:28 PM,35.6,35.6,100,29.87,7.0,Calm,Calm,-,N/A,,Partly Cloudy,0,2013-12-03 03:28:00
10:38 PM,37.4,35.6,93,29.88,10.0,WNW,2.3,-,N/A,,Scattered Clouds,290,2013-12-03 03:38:00
10:58 PM,38.7,37.4,95,29.89,10.0,Calm,Calm,-,N/A,,Scattered Clouds,0,2013-12-03 03:58:00
11:58 PM,39.4,37.4,93,29.90,10.0,Calm,Calm,-,N/A,,Overcast,0,2013-12-03 04:58:00